Weather past 2 weeks in Saint-Pierre, Saint Pierre and Miquelon

Now
39 °F

Passing clouds.


Feels Like: 29 °F
Forecast: 38 / 44 °F
Wind: 20 mph from Southeast

Location: Saint-Pierre

Current Time: Dec 18, 2014 at 8:08:17 AM

Latest Report: Dec 18, 2014 at 7:00 AM


Visibility: 2 mi

Pressure: 29.89 "Hg

Humidity: 100%

Dew point: 39 °F

Location of Saint-PierreLocation

Historic Weather in Saint-Pierre — Graph

°F

Saint-Pierre temperature yesterday

Maximum temperature yesterday: 34 °F (at 8:00 PM)
Minimum temperature yesterday: 28 °F (at 10:00 AM)
Average temperature yesterday: 32 °F

Past Weeks' High & Low Weather Summary

 TemperatureHumidityPressure
High48 °F (Dec 4, 6:00 AM)100% (Dec 4, 6:00 AM)30.83 "Hg (Dec 4, 6:00 AM)
Low14 °F (Dec 8, 6:00 AM)51% (Dec 9, 2:00 PM)29.50 "Hg (Dec 14, 6:00 PM)
Average36 °F88%30.16 "Hg
* Reported Dec 3 7:00 AM — Dec 18 7:00 AM, Saint-Pierre, Weather by CustomWeather, © 2014

Note: Actual official high and low records may vary slightly from our data, if they occured in-between our weather recording intervals... More about our weather records

Advertising

Saint-Pierre weather history for previous 24 hours

 ConditionsComfort  
Time TempWeatherWind HumidityBarometerVisibility
7:00 AM
Dec 18
39 °FPassing clouds.20 mph100%29.89 "Hg2 mi
6:00 AM39 °FPassing clouds.20 mph93%29.92 "Hg4 mi
12:00 AM34 °FPartly cloudy.16 mph93%30.07 "HgN/A
11:00 PM
Dec 17
34 °FPassing clouds.16 mph93%30.07 "HgN/A
10:00 PM34 °FPassing clouds.14 mph93%30.09 "HgN/A
9:00 PM34 °FLight snow. Partly cloudy.15 mph87%30.09 "HgN/A
8:00 PM34 °FLight snow. Passing clouds.15 mph87%30.09 "HgN/A
7:00 PM32 °FLight snow. Passing clouds.14 mph93%30.09 "HgN/A
6:00 PM32 °FPassing clouds.12 mph93%30.09 "HgN/A
5:00 PM32 °FPartly cloudy.12 mph93%30.09 "HgN/A
4:00 PM32 °FLight snow. Partly sunny.10 mph93%30.09 "Hg6 mi
3:00 PM32 °FLight snow. Partly sunny.5 mph93%30.09 "Hg6 mi
2:00 PM32 °FPartly sunny.3 mph87%30.09 "HgN/A
1:00 PM30 °FPartly sunny.3 mph86%30.09 "HgN/A
12:00 PM30 °FPartly sunny.6 mph86%30.12 "HgN/A
11:00 AM30 °FPartly sunny.5 mph86%30.12 "HgN/A
10:00 AM28 °FPartly sunny.8 mph93%30.12 "HgN/A
9:00 AM30 °FPartly sunny.9 mph86%30.09 "HgN/A
8:00 AM30 °FPassing clouds.10 mph86%30.09 "HgN/A
Weather by CustomWeather, © 2014

See weather overviewHow to use our weather pages